Regional Weather Roundup
Issued by NWS

Home | Current Version | Previous Version | Text Only | Print | Product List | Glossary Off
Versions: 1 2 3 4 5 6 7 8 9 10 11 12 13 14 15 16 17 18 19 20 21 22 23 24 25 26 27 28 29 30 31 32 33 34 35 36 37 38 39 40 41 42 43 44 45 46 47 48 49 50

000
ASUS43 KOAX 060910
RWRNE

WEATHER ROUNDUP FOR NEBRASKA
NATIONAL WEATHER SERVICE OMAHA NE
400 AM CDT WED MAY 06 2015

NOTES: SATELLITE DATA IS BEING USED TO AUGMENT CLOUD COVER ABOVE
       12000 FEET.
       "FAIR" INDICATES FEW OR NO CLOUDS BELOW 12,000 FEET WITH NO
       SIGNIFICANT WEATHER AND/OR OBSTRUCTIONS TO VISIBILITY.

  * THESE STATIONS DO NOT REPORT WEATHER SUCH AS RAIN...SNOW OR FOG.

NEZ001>004-019>022-054>056-061000-
NEBRASKA PANHANDLE

CITY           SKY/WX    TMP DP  RH WIND       PRES   REMARKS
SCOTTSBLUFF    LGT RAIN  53  53 100 E7        29.71F FOG
ALLIANCE       CLOUDY    53  52  96 SE12      29.71F
CHADRON        LGT RAIN  53  51  93 E3        29.73F FOG
KIMBALL        DRZL/FOG  51  51 100 E7        29.68F VSB 1
SIDNEY         CLOUDY    53  51  93 SE13G22   29.69F
$$

NEZ057>060-069>072-079>082-061000-
SOUTHWEST NEBRASKA

CITY           SKY/WX    TMP DP  RH WIND       PRES   REMARKS
NORTH PLATTE   CLOUDY    59  56  89 SE12G21   29.75F
IMPERIAL       CLOUDY    54  51  90 S16G25    29.71F
LEXINGTON      CLOUDY    60  58  94 SE14      29.77F
MCCOOK         CLOUDY    60  57  89 S13G20    29.74R
OGALLALA       CLOUDY    55  53  94 SE10G18   29.72F
$$

NEZ005>010-023>029-035>040-094-061000-
NORTH CENTRAL NEBRASKA

CITY           SKY/WX    TMP DP  RH WIND       PRES   REMARKS
VALENTINE      LGT RAIN  57  55  93 SE16      29.77F
AINSWORTH      CLOUDY    58  57  98 SE16      29.79F
BROKEN BOW     CLOUDY    60  58  92 S16G25    29.78F
O`NEILL        DRIZZLE   60  59  95 SE9G16    29.83F
ORD            LGT RAIN  60  57  89 SE14      29.80F
THEDFORD       CLOUDY    58  57  96 SE10G17   29.77F
$$

NEZ041-046>049-061>064-073>077-083>087-061000-
SOUTH CENTRAL NEBRASKA

CITY           SKY/WX    TMP DP  RH WIND       PRES   REMARKS
GRAND ISLAND   CLOUDY    61  58  90 SE16G24   29.84F
AURORA         CLOUDY    62  62 100 S12       29.84F
HASTINGS       CLOUDY    61  58  90 SE15      29.82F
HEBRON         CLOUDY    64  57  80 SE20G25   29.83F
HOLDREGE       CLOUDY    59  57  93 SE20G25   29.78F
KEARNEY *      CLOUDY    61  57  88 SE21G26   29.80F
YORK           CLOUDY    63  61  94 SE14G20   29.85F
$$

NEZ011>018-030>034-042>045-061000-
NORTHEAST NEBRASKA

CITY           SKY/WX    TMP DP  RH WIND       PRES   REMARKS
NORFOLK        CLOUDY    62  60  93 SE10      29.87F
ALBION         LGT RAIN  61  59  94 SE13G20   29.84F
BLAIR          CLOUDY    64  59  85 SE8       29.91F
COLUMBUS *     CLOUDY    63  55  77 SE10G16   29.89F
FREMONT        CLOUDY    65  61  86 SE10      29.89F
TEKAMAH        CLOUDY    65  61  87 SE16      29.91F
WAYNE          CLOUDY    64  59  86 SE16      29.90F
$$

NEZ050>053-065>068-078-088>093-061000-
SOUTHEAST NEBRASKA

CITY           SKY/WX    TMP DP  RH WIND       PRES   REMARKS
LINCOLN        MOCLDY    64  60  87 SE9       29.88F
OMAHA EPPLEY   CLOUDY    64  61  90 SE12      29.91F
BEATRICE       LGT RAIN  63  60  92 SE8       29.87F
FALLS CITY     CLOUDY    62  60  93 E9        29.90F
NEBRASKA CITY  CLOUDY    62  62  99 SE9       29.90F
PLATTSMOUTH    CLOUDY    62  60  92 SE10      29.90F
$$

NEZ044-045-051>053-067-061000-
OMAHA AREA

CITY           SKY/WX    TMP DP  RH WIND       PRES   REMARKS
OMAHA EPPLEY   CLOUDY    64  61  90 SE12      29.91F
BLAIR          CLOUDY    64  59  85 SE8       29.91F
FREMONT        CLOUDY    65  61  86 SE10      29.89F
MILLARD        CLOUDY    64  61  88 SE6       29.90F
OFFUTT AFB     CLOUDY    63  61  93 E8        29.90F
PLATTSMOUTH    CLOUDY    62  60  92 SE10      29.90F
$$


USA.gov is the U.S. government's official web portal to all federal, state and local government web resources and services.